Regional Weather Roundup
Issued by NWS Mobile, AL

Home | Current Version | Previous Version | Text Only | Print | Product List | Glossary On
Versions: 1 2 3 4 5 6 7 8 9 10 11 12 13 14 15 16 17 18 19 20 21 22 23 24 25 26 27 28 29 30 31 32 33 34 35 36 37 38 39 40 41 42 43 44 45 46 47 48 49 50
073
ASUS44 KMOB 142112
RWRMOB
REGIONAL WEATHER ROUNDUP
NATIONAL WEATHER SERVICE MOBILE AL
300 PM CST SUN FEB 14 2016

NOTE: "FAIR" INDICATES FEW OR NO CLOUDS BELOW 12,000 FEET WITH NO
      SIGNIFICANT WEATHER AND/OR OBSTRUCTIONS TO VISIBILITY.

  * THESE STATIONS ARE PART OF THE UNIVERSITY OF SOUTH ALABAMA
    MESONET AND ARE NOT UNDER NWS OR FAA QUALITY CONTROL.

ALZ061>064-142200-
COASTAL ALABAMA

CITY           SKY/WX    TMP DP  RH WIND       PRES   REMARKS
MOBILE REG APT MOSUNNY   60  48  64 SE15      30.17F
BROOKLEY FIELD CLOUDY    59  49  69 S10       30.19S
USA CAMPUS*    NOT AVBL
DOG RIVER*     NOT AVBL


CITY           SKY/WX    TMP DP  RH WIND       PRES   REMARKS
MOUNT VERNON*  NOT AVBL
SARALAND*      NOT AVBL
BAY MINETTE*   NOT AVBL
LOXLEY*        NOT AVBL
ROBERTSDALE*   NOT AVBL
FAIRHOPE*      NOT AVBL
ELBERTA*       NOT AVBL
FOLEY*         NOT AVBL
GRAND BAY*     NOT AVBL
DAUPHIN ISLND* NOT AVBL
BON SCOUR NWR* NOT AVBL
GULF SHORES    PTSUNNY   61  50  66 E15G26    30.18S

$$

ALZ051>060-142200-
INTERIOR SOUTHWEST AND SOUTH CENTRAL ALABAMA

CITY           SKY/WX    TMP DP  RH WIND       PRES   REMARKS
GREENVILLE     SUNNY     61  16  17 S8G17     30.15F
EVERGREEN      SUNNY     62  21  20 S9        30.17F
CASTLEBERRY*   NOT AVBL
ATMORE*        NOT AVBL
DIXIE*         NOT AVBL
ANDALUSIA/OPP  MOSUNNY   65  21  18 VRB3      30.18
ANDALUSIA*     NOT AVBL
FLORALA APT    SUNNY     61  21  21 S8        30.19F
FLORALA*       NOT AVBL

$$

FLZ001>006-142200-
WESTERN FLORIDA PANHANDLE

CITY           SKY/WX    TMP DP  RH WIND       PRES   REMARKS
PENSACOLA      SUNNY     58  43  57 SE14      30.19F
NAS PENSACOLA  PTSUNNY   61  46  57 SE14      30.18F
MILTON         PTSUNNY   59  32  36 S13       30.18F
WHTNG S FIELD  PTSUNNY   61  34  36 S12       30.19F


CITY           SKY/WX    TMP DP  RH WIND       PRES   REMARKS
WALNUT HILL*   NOT AVBL
JAY*           NOT AVBL
DUKE FIELD     SUNNY     60  25  26 S7        30.17F
CRESTVIEW      SUNNY     63  20  19 S7        30.19F
VALPARAISO     PTSUNNY   58  29  32 S9        30.18F
DESTIN         SUNNY     59  32  36 SE8       30.20F

$$

MSZ076-079-142200-
INTERIOR SOUTHEAST MISSISSIPPI

CITY           SKY/WX    TMP DP  RH WIND       PRES   REMARKS
LEAKESVILLE*   NOT AVBL
AGRICOLA*      NOT AVBL

$$

MARINE OBSERVATIONS

STATION/POSITION TIME  TEMP    WIND        PRES    WAVE
                       AIR SEA DIR/SP/G            HT/PER
                 (UTC) (F)     (DEG/KT/KT) (MB)    (FT/S)
PASCAGOULA       2000   61     120/ 10/ 13 1021.2F
PETIT BOIS ISLND 2000   63     130/ 13/ 17 1021.7F
GRAND BAY        1945   58     130/ 11     1022.0F
KATRINA CUT      2000   59     140/ 17       N/A
CEDAR POINT      2000   58     140/ 13     1021.0F
E DAUPHIN ISLAND 2000   60     130/ 16/ 18 1021.2F
MIDDLE BAY LIGHT 2000          130/ 12     1021.0F
USCG MOBILE BAY  2000   57 53  180/  9/ 14 1022.4F
STATE DOCKS      2000   60 53              1021.7F
MEAHER PARK      2000   60     200/ 11     1021.7F
WEEKS BAY        1900   62                   N/A
FORT MORGAN      2000   60     150/ 19/ 22 1021.0F
12 S ORANGE BCH  2050   61 64  130/ 16/ 17 1020.8F   4/ 6
PENSACOLA BAY    2000   62 52  140/  3/ 10 1022.8F

$$

SELECTED LOCATIONS ACROSS THE REGION

CITY           SKY/WX    TMP DP  RH WIND       PRES   REMARKS
NEW ORLEANS    PTSUNNY   70  50  49 S14G26    30.07F
GULFPORT       PTSUNNY   64  51  62 SE14      30.13F
PASCAGOULA AP  CLOUDY    62  50  64 E12G18    30.16F
PASCAGOULA*    NOT AVBL
HATTIESBURG    PTSUNNY   66  44  45 S17G23    30.12F
LAUREL         MOSUNNY   66  43  42 S13G22    30.11F
MERIDIAN       CLOUDY    62  29  28 S13       30.10F
JACKSON        CLOUDY    64  40  41 S14       30.04F
MONTGOMERY     SUNNY     63  18  17 S14       30.16F
TROY           SUNNY     62  21  20 S12       30.18F
KINSTON*       NOT AVBL
GENEVA*        NOT AVBL
ASHFORD*       NOT AVBL
DOTHAN         SUNNY     59  18  20 E8        30.23F
PANAMA CITY    MOSUNNY   61  26  26 S6        30.19F

$$





USA.gov is the U.S. government's official web portal to all federal, state and local government web resources and services.